FW8408 Weather Reports


time (UTC)temp
C
wind
direction
speed
KPH
gust
KPH
rain 1hr
cm
rain 24hr
cm
rain mn
cm
humidity
%
barometer
mb
20260506104030 11 196 4.8 19.3 0.00 0.00 0.00 89 1007.4
20260506103531 11 252 6.4 19.3 0.00 0.00 0.00 89 1007.2
20260506103043 11 240 9.7 19.3 0.00 0.00 0.00 89 1007.4
20260506102531 11 190 6.4 20.9 0.00 0.00 0.00 89 1007.5
20260506102031 11 205 6.4 20.9 0.00 0.00 0.00 89 1007.5
20260506101551 11 213 6.4 16.1 0.00 0.00 0.00 90 1007.3
20260506101030 11 218 6.4 16.1 0.00 0.00 0.00 90 1007.2
20260506100530 11 146 6.4 16.1 0.00 0.00 0.00 90 1007.1
20260506100039 10 138 4.8 16.1 0.00 0.00 0.00 90 1007.1
20260506095530 10 175 6.4 16.1 0.00 0.00 0.00 90 1007.3
20260506095030 10 223 8.0 16.1 0.00 0.00 0.00 90 1007.4
20260506094553 10 207 4.8 19.3 0.00 0.00 0.00 89 1007.3
20260506094032 10 138 6.4 19.3 0.00 0.00 0.00 89 1007.1
20260506093530 10 197 6.4 19.3 0.00 0.00 0.00 89 1007.1
20260506093039 10 208 6.4 17.7 0.00 0.00 0.00 89 1007.1
20260506092531 10 219 6.4 17.7 0.00 0.00 0.00 89 1007.1
20260506092034 10 234 6.4 17.7 0.00 0.00 0.00 89 1007.1
20260506091539 10 159 4.8 16.1 0.00 0.00 0.00 89 1007.1
20260506091031 10 214 4.8 16.1 0.00 0.00 0.00 89 1007.1
20260506090530 10 230 4.8 16.1 0.00 0.00 0.00 88 1007.1
20260506090043 10 227 6.4 16.1 0.00 0.00 0.00 88 1007.2
20260506085531 11 174 6.4 14.5 0.00 0.00 0.00 88 1007.1
20260506085030 11 246 6.4 16.1 0.00 0.00 0.00 88 1007.1
20260506084550 11 163 6.4 16.1 0.00 0.00 0.00 88 1007.0
20260506084030 11 214 6.4 17.7 0.00 0.00 0.00 88 1007.0
20260506083534 11 198 8.0 17.7 0.00 0.00 0.00 87 1006.9
20260506083043 11 118 8.0 25.7 0.00 0.00 0.00 87 1006.9
20260506082530 11 227 8.0 25.7 0.00 0.00 0.00 87 1006.9
20260506082032 11 182 8.0 14.5 0.00 0.00 0.00 87 1007.0
20260506081540 11 188 4.8 12.9 0.00 0.00 0.00 87 1007.0
20260506081033 11 225 6.4 16.1 0.00 0.00 0.00 87 1007.1
20260506080531 11 231 6.4 19.3 0.00 0.00 0.00 87 1007.1
20260506073048 11 225 4.8 16.1 0.00 0.00 0.00 86 1007.0
20260506072530 11 229 8.0 16.1 0.00 0.00 0.00 86 1006.9
20260506072030 11 169 4.8 17.7 0.00 0.00 0.00 86 1006.8
20260506071600 11 214 6.4 17.7 0.00 0.00 0.00 86 1006.7
20260506071031 10 190 6.4 17.7 0.00 0.00 0.00 86 1006.7
20260506070531 10 178 8.0 17.7 0.00 0.00 0.00 86 1006.7
20260506062031 10 184 8.0 17.7 0.00 0.00 0.00 85 1006.4
20260506061540 10 114 6.4 20.9 0.00 0.00 0.00 85 1006.3
20260506061031 11 207 8.0 20.9 0.00 0.00 0.00 85 1006.4
20260506060533 11 182 8.0 20.9 0.00 0.00 0.00 84 1006.2
20260506051031 11 215 8.0 22.5 0.00 0.00 0.00 83 1006.5
20260506050534 11 234 8.0 24.1 0.00 0.00 0.00 83 1006.5
20260506045030 11 246 9.7 25.7 0.00 0.00 0.00 83 1006.7
20260506044539 11 200 9.7 24.1 0.00 0.00 0.00 83 1006.6
20260506044030 11 170 8.0 20.9 0.00 0.00 0.00 82 1006.5
20260506043534 11 228 8.0 20.9 0.00 0.00 0.00 82 1006.5
20260506043047 12 198 6.4 19.3 0.00 0.00 0.00 82 1006.6
20260506042533 12 170 6.4 19.3 0.00 0.00 0.00 82 1006.5
20260506042036 12 188 8.0 19.3 0.00 0.00 0.00 81 1006.5
20260506041555 12 202 8.0 19.3 0.00 0.00 0.00 81 1006.5
20260506041032 12 196 8.0 19.3 0.00 0.00 0.00 81 1006.5
20260506040533 12 153 6.4 17.7 0.00 0.00 0.00 81 1006.4
20260506040049 12 225 8.0 19.3 0.00 0.00 0.00 82 1006.4
20260506035533 12 196 6.4 19.3 0.00 0.00 0.00 83 1006.2
20260506035036 12 236 6.4 16.1 0.00 0.00 0.00 83 1006.5
20260506034547 12 195 6.4 16.1 0.00 0.00 0.00 82 1006.5
20260506034032 12 202 8.0 16.1 0.00 0.00 0.00 82 1006.4
20260506033537 12 190 6.4 17.7 0.00 0.00 0.00 82 1006.4
20260506033043 12 196 6.4 17.7 0.00 0.00 0.00 82 1006.5
20260506032533 12 203 4.8 19.3 0.00 0.00 0.00 82 1006.4
20260506032033 12 217 8.0 19.3 0.00 0.00 0.00 82 1006.4
20260506031547 12 199 6.4 17.7 0.00 0.00 0.00 82 1006.2
20260506031034 12 202 4.8 17.7 0.00 0.00 0.00 82 1006.4
20260506030535 12 195 8.0 22.5 0.00 0.00 0.00 82 1006.4
20260506030046 12 205 8.0 22.5 0.00 0.00 0.00 81 1006.4
20260506025532 12 213 6.4 17.7 0.00 0.00 0.00 81 1006.5
20260506025032 12 201 6.4 17.7 0.00 0.00 0.00 80 1006.4
20260506024549 12 242 6.4 17.7 0.00 0.00 0.00 80 1006.5
20260506024031 12 215 6.4 17.7 0.00 0.00 0.00 79 1006.5
20260506023533 12 190 4.8 14.5 0.00 0.00 0.00 79 1006.4
20260506023053 13 181 6.4 17.7 0.00 0.00 0.00 78 1006.4
20260506022533 13 130 6.4 17.7 0.00 0.00 0.00 78 1006.5
20260506022033 13 185 8.0 19.3 0.00 0.00 0.00 77 1006.7
20260506021555 13 177 8.0 19.3 0.00 0.00 0.00 77 1006.6
20260506021032 13 197 8.0 16.1 0.00 0.00 0.00 77 1006.6
20260506020532 13 202 6.4 14.5 0.00 0.00 0.00 77 1006.6
20260506020043 13 183 6.4 16.1 0.00 0.00 0.00 76 1006.7
20260506015533 13 168 4.8 16.1 0.00 0.00 0.00 76 1006.6
20260506015035 13 128 4.8 19.3 0.00 0.00 0.00 75 1006.7
20260506014552 14 130 8.0 19.3 0.00 0.00 0.00 75 1006.8
20260506014032 14 159 6.4 19.3 0.00 0.00 0.00 74 1006.8
20260506013615 15 227 6.4 19.3 0.00 0.00 0.00 74 1006.7
20260506013046 15 155 6.4 14.5 0.00 0.00 0.00 74 1006.7
20260506012532 15 214 6.4 16.1 0.00 0.00 0.00 74 1006.6
20260506012035 15 173 4.8 16.1 0.00 0.00 0.00 74 1006.6
20260506011544 15 184 3.2 16.1 0.00 0.00 0.00 74 1006.5
20260506011033 15 216 8.0 16.1 0.00 0.00 0.00 73 1006.5
20260506010535 15 224 6.4 16.1 0.00 0.00 0.00 73 1006.4
20260506010040 15 202 4.8 17.7 0.00 0.00 0.00 73 1006.4
20260506005535 15 194 6.4 17.7 0.00 0.00 0.00 72 1006.3
20260506005032 15 253 6.4 14.5 0.00 0.00 0.00 71 1006.4
20260506004543 16 191 4.8 17.7 0.00 0.00 0.00 70 1006.3
20260506004033 16 220 6.4 22.5 0.00 0.00 0.00 70 1006.4
20260506003532 16 227 8.0 22.5 0.00 0.00 0.00 69 1006.3
20260506003046 16 206 6.4 17.7 0.00 0.00 0.00 69 1006.2
20260506002532 16 196 6.4 17.7 0.00 0.00 0.00 69 1006.1
20260506002032 16 123 4.8 14.5 0.00 0.00 0.00 69 1006.2
20260506001606 16 168 3.2 12.9 0.00 0.00 0.00 69 1005.9
20260506001032 16 188 4.8 12.9 0.00 0.00 0.00 69 1005.8
20260506000535 16 207 3.2 17.7 0.00 0.00 0.00 69 1005.5
20260506000051 16 188 4.8 17.7 0.00 0.00 0.00 70 1005.3
20260505235533 16 117 3.2 11.3 0.00 0.00 0.00 71 1005.1
20260505235033 16 153 1.6 6.4 0.00 0.00 0.00 71 1005.1
20260505234548 16 146 3.2 6.4 0.00 0.00 0.00 71 1005.0
20260505234033 16 165 1.6 6.4 0.00 0.00 0.00 72 1005.1
20260505233532 16 169 1.6 8.0 0.00 0.00 0.00 72 1005.1
20260505233047 16 173 3.2 9.7 0.00 0.00 0.00 72 1005.1
20260505232532 15 182 3.2 11.3 0.00 0.00 0.00 73 1005.3
20260505232032 15 211 3.2 14.5 0.00 0.00 0.00 73 1005.3
20260505231552 15 213 3.2 17.7 0.00 0.00 0.00 74 1005.2
20260505231033 14 219 4.8 22.5 0.00 0.00 0.00 75 1005.6
20260505230532 13 173 9.7 22.5 0.00 0.00 0.00 77 1005.6
20260505230045 13 336 6.4 22.5 0.00 0.00 0.00 77 1004.5
20260505225537 13 219 8.0 25.7 0.00 0.00 0.00 77 1003.7
20260505225032 13 229 9.7 30.6 0.00 0.00 0.00 77 1003.5
20260505224542 13 261 11.3 30.6 0.00 0.00 0.00 77 1003.5
20260505224033 13 225 11.3 25.7 0.00 0.00 0.00 77 1003.3
20260505223533 13 216 9.7 27.4 0.00 0.00 0.00 76 1003.3
20260505223046 13 208 11.3 27.4 0.00 0.00 0.00 77 1003.2
20260505222530 13 167 9.7 25.7 0.00 0.00 0.00 77 1003.1
20260505222031 13 219 11.3 25.7 0.00 0.00 0.00 77 1003.2
20260505221546 13 177 6.4 25.7 0.00 0.00 0.00 77 1003.1
20260505221031 13 200 9.7 25.7 0.00 0.00 0.00 77 1003.0
20260505220530 13 178 12.9 25.7 0.00 0.00 0.00 77 1002.9
20260505220047 13 228 9.7 24.1 0.00 0.00 0.00 77 1002.9
20260505215530 13 145 9.7 20.9 0.00 0.00 0.00 76 1002.7
20260505215030 13 163 9.7 24.1 0.00 0.00 0.00 77 1002.8
20260505214558 13 197 8.0 30.6 0.00 0.00 0.00 77 1002.9
20260505214029 13 227 12.9 30.6 0.00 0.00 0.00 77 1002.9
20260505213533 13 223 9.7 29.0 0.00 0.00 0.00 77 1002.9
20260505213053 13 187 11.3 29.0 0.00 0.00 0.00 77 1002.7
20260505212531 13 216 9.7 25.7 0.00 0.00 0.00 78 1002.8
20260505212031 13 230 11.3 25.7 0.00 0.00 0.00 77 1002.7
20260505211539 13 232 11.3 29.0 0.00 0.00 0.00 77 1002.8
20260505211031 13 146 9.7 29.0 0.00 0.00 0.00 77 1002.7
20260505210530 13 179 11.3 29.0 0.00 0.00 0.00 76 1002.6
20260505210051 14 220 11.3 29.0 0.00 0.00 0.00 76 1002.8
20260505205531 14 238 12.9 30.6 0.00 0.00 0.00 75 1002.7
20260505205030 14 235 14.5 30.6 0.00 0.00 0.00 75 1002.7
20260505204545 15 200 11.3 30.6 0.00 0.00 0.00 74 1002.5
20260505204030 15 191 11.3 29.0 0.00 0.00 0.00 74 1002.9
20260505203530 15 224 12.9 29.0 0.00 0.00 0.00 73 1002.8
20260505203047 15 212 9.7 35.4 0.00 0.00 0.00 73 1002.8
20260505202530 15 200 9.7 35.4 0.00 0.00 0.00 73 1002.8
20260505202031 15 124 9.7 32.2 0.00 0.00 0.00 73 1002.8
20260505201550 15 219 12.9 32.2 0.00 0.00 0.00 73 1002.8
20260505201031 15 155 8.0 24.1 0.00 0.00 0.00 73 1002.9
20260505200531 15 256 9.7 29.0 0.00 0.00 0.00 73 1002.9
20260505200048 15 201 11.3 29.0 0.00 0.00 0.00 72 1003.0
20260505195530 16 198 11.3 25.7 0.00 0.00 0.00 72 1003.0
20260505195030 16 153 9.7 24.1 0.00 0.00 0.00 72 1002.9
20260505194547 15 198 9.7 20.9 0.00 0.00 0.00 73 1003.1
20260505194031 15 245 9.7 35.4 0.00 0.00 0.00 73 1003.2
20260505193530 15 118 12.9 35.4 0.00 0.00 0.00 73 1003.3
20260505193050 15 128 9.7 29.0 0.00 0.00 0.00 73 1003.5
20260505192531 16 166 11.3 29.0 0.00 0.00 0.00 72 1003.5
20260505192031 15 166 11.3 27.4 0.00 0.00 0.00 73 1003.4
20260505191551 15 211 9.7 27.4 0.00 0.00 0.00 73 1003.6
20260505191033 15 186 11.3 27.4 0.00 0.00 0.00 73 1003.8
20260505190533 15 209 11.3 29.0 0.00 0.00 0.00 73 1004.0
20260505190111 16 196 12.9 29.0 0.00 0.00 0.00 72 1004.1
20260505185535 16 167 9.7 24.1 0.00 0.00 0.00 70 1004.1
20260505185033 16 219 8.0 25.7 0.00 0.00 0.00 70 1004.0
20260505184559 16 225 9.7 25.7 0.00 0.00 0.00 69 1004.0
20260505184033 17 226 8.0 24.1 0.00 0.00 0.00 67 1004.2
20260505183535 17 241 8.0 22.5 0.00 0.00 0.00 66 1004.1
20260505183051 18 215 11.3 25.7 0.00 0.00 0.00 65 1004.3
20260505182533 18 155 8.0 25.7 0.00 0.00 0.00 66 1004.2
20260505182032 18 209 8.0 27.4 0.00 0.00 0.00 66 1004.2
20260505181546 18 182 8.0 29.0 0.00 0.00 0.00 66 1004.2
20260505181036 18 219 6.4 29.0 0.00 0.00 0.00 67 1004.2
20260505180535 17 224 8.0 24.1 0.00 0.00 0.00 68 1004.3
20260505180050 17 217 4.8 24.1 0.00 0.00 0.00 69 1004.4
20260505175534 17 184 11.3 27.4 0.00 0.00 0.00 67 1004.4
20260505175033 17 227 8.0 27.4 0.00 0.00 0.00 67 1004.4
20260505174546 17 155 8.0 25.7 0.00 0.00 0.00 68 1004.5
20260505174032 17 184 9.7 25.7 0.00 0.00 0.00 69 1004.6
20260505173532 17 215 9.7 27.4 0.00 0.00 0.00 69 1004.7
20260505173042 17 182 9.7 27.4 0.00 0.00 0.00 69 1004.7
20260505172533 17 193 12.9 25.7 0.00 0.00 0.00 68 1005.0
20260505172032 17 151 11.3 25.7 0.00 0.00 0.00 68 1005.0
20260505171548 17 165 4.8 25.7 0.00 0.00 0.00 68 1004.9
20260505171033 17 225 8.0 24.1 0.00 0.00 0.00 67 1004.8
20260505170533 17 179 9.7 22.5 0.00 0.00 0.00 68 1005.1
20260505170054 17 199 11.3 22.5 0.00 0.00 0.00 67 1005.4
20260505165532 18 228 6.4 24.1 0.00 0.00 0.00 67 1005.4
20260505165032 17 119 9.7 27.4 0.00 0.00 0.00 68 1005.2
20260505164546 17 200 6.4 27.4 0.00 0.00 0.00 69 1005.3
20260505164032 17 172 11.3 22.5 0.00 0.00 0.00 68 1005.3
20260505163533 17 186 9.7 24.1 0.00 0.00 0.00 67 1005.4
20260505163041 17 209 6.4 24.1 0.00 0.00 0.00 68 1005.6
20260505162533 17 203 8.0 22.5 0.00 0.00 0.00 68 1005.8
20260505162034 17 241 8.0 22.5 0.00 0.00 0.00 67 1005.8
20260505161543 17 224 8.0 22.5 0.00 0.00 0.00 67 1005.9
20260505161033 17 152 8.0 22.5 0.00 0.00 0.00 68 1005.9
20260505160531 17 134 6.4 17.7 0.00 0.00 0.00 68 1006.0
20260505153053 16 185 6.4 17.7 0.00 0.00 0.00 72 1006.5
20260505152531 15 175 9.7 17.7 0.00 0.00 0.00 73 1006.6
20260505152031 15 123 8.0 17.7 0.00 0.00 0.00 73 1006.6
20260505151543 15 228 6.4 17.7 0.00 0.00 0.00 73 1006.7
20260505151030 15 131 6.4 19.3 0.00 0.00 0.00 75 1006.6
20260505150534 14 208 6.4 22.5 0.00 0.00 0.00 76 1006.7
20260505140534 15 204 8.0 19.3 0.00 0.00 0.00 73 1006.1
20260505125031 12 225 8.0 19.3 0.00 0.00 0.00 78 1006.4
20260505124603 12 234 4.8 16.1 0.00 0.00 0.00 78 1006.4
20260505124030 12 229 4.8 16.1 0.00 0.00 0.00 78 1006.2
20260505123530 12 205 9.7 19.3 0.00 0.00 0.00 78 1006.3
20260505123104 12 202 8.0 19.3 0.00 0.00 0.00 79 1006.2
20260505122531 12 142 6.4 22.5 0.00 0.00 0.00 79 1006.5
20260505122031 12 222 6.4 22.5 0.00 0.00 0.00 79 1006.4
20260505121540 12 209 8.0 20.9 0.00 0.00 0.00 80 1006.2
20260505121031 11 157 6.4 19.3 0.00 0.00 0.00 80 1006.2
20260505120530 11 202 8.0 19.3 0.00 0.00 0.00 80 1006.6
20260505120051 11 203 6.4 17.7 0.00 0.00 0.00 80 1006.6
20260505115530 11 121 6.4 17.7 0.00 0.00 0.00 81 1006.7
20260505115030 11 128 6.4 17.7 0.00 0.00 0.00 81 1006.7
20260505114554 11 167 6.4 20.9 0.00 0.00 0.00 81 1006.8
20260505114031 11 147 4.8 20.9 0.00 0.00 0.00 82 1006.8
20260505113530 11 200 6.4 17.7 0.00 0.00 0.00 82 1006.8
20260505113050 11 223 8.0 17.7 0.00 0.00 0.00 82 1006.9
20260505112531 11 211 6.4 17.7 0.00 0.00 0.00 82 1006.9
20260505112030 11 229 6.4 17.7 0.00 0.00 0.00 83 1006.8
20260505111541 10 232 4.8 17.7 0.00 0.00 0.00 83 1006.8
20260505111031 10 203 6.4 14.5 0.00 0.00 0.00 83 1006.8
20260505110531 10 186 6.4 20.9 0.00 0.00 0.00 84 1006.7